sat.trackr.live / text

‹ back to catalog

ONEWEB-0442

NORAD 51636 · 2022-012Q

PAYLOAD ACTIVE UNKNOWN

§ Identity

Operator
Country
UK
Launch date
2022-02-10
Launch site
FRGUI
Launch vehicle
Mass (kg)
RCS (m²)

Purposes: comms

External: N2YO · Heavens-Above · Gunter

§ Orbital elements

Epoch: 2026-05-25T02:52:49.490400Z

Period
109.29 min
Inclination
87.9155°
Eccentricity
0.0002305
Mean motion
13.17649114 rev/d
Perigee alt
1,192.0 km
Apogee alt
1,195.5 km
Semi-major
7,571.8 km
B*
-6.4144e-4
RAAN
10.4655°
Arg perigee
93.7536°
Mean anomaly
266.3859°
Rev number
21,063

§ Raw data

ONEWEB-04421 51636U 22012Q   26145.12001725 -.00000236  00000+0 -64144-3 0  99982 51636  87.9155  10.4655 0002305  93.7536 266.3859 13.17649114210630

JSON: /api/v1/satellites/51636 · /tle

For live sub-satellite position, see the globe view (requires WebGL).

§ Visibility from observer

Set your observer location to see the next 7 days of passes ≥ 10°. The values pass through the URL so the page stays shareable.

No JS? Fill the form by hand. The geolocation button needs JavaScript.